Location: Unspecified
(33.6682°S, 0.0000°E)
Time: 20:36:22
(UTC+00:00)

Vanguard 2 Rocket - Pass Details

Date: 27 June 2019
Orbit: 554 x 3326 km, 32.9° (Epoch: 16 July)

Event Time Altitude Azimuth Distance (km) Brightness Sun altitude
Rises 03:52:17 0° 340° (NNW) 7,049 11.3 -39.2°
Reaches altitude 10° 03:58:17 10° 351° (N) 6,210 11.1 -38.0°
Maximum altitude 04:13:08 26° 39° (NE) 4,903 10.9 -34.9°
Drops below altitude 10° 04:26:12 10° 87° (E) 5,517 11.7 -32.2°
Sets 04:30:57 0° 98° (E) 6,165 12.2 -31.2°
